Regional Weather Roundup
Issued by NWS New Orleans/Baton Rouge, LA

Home | Current Version | Previous Version | Text Only | Print | Product List | Glossary Off
Versions: 1 2 3 4 5 6 7 8 9 10 11 12 13 14 15 16 17 18 19 20 21 22 23 24 25 26 27 28 29 30 31 32 33 34 35 36 37 38 39 40 41 42 43 44 45 46 47 48 49 50

630
ASUS44 KLIX 260707
RWRLIX
NEW ORLEANS REGIONAL WEATHER ROUNDUP
NATIONAL WEATHER SERVICE NEW ORLEANS LA
200 AM CDT THU MAR 26 2015

NOTE: "FAIR" INDICATES FEW OR NO CLOUDS BELOW 12,000 FEET WITH NO
      SIGNIFICANT WEATHER AND/OR OBSTRUCTIONS TO VISIBILITY.
      SKY/WX - SKY CONDITION AND SIGNIFICANT WEATHER.
      TMP - AIR TEMPERATURE.     DP    - DEWPOINT TEMPERATURE.
      RH  - RELATIVE HUMIDITY.   PRES  - PRESSURE.
      HI  - HEAT INDEX.          WCI   - WIND CHILL INDEX.

*  THESE STATIONS ARE NOT NWS OR FAA STATIONS AND ARE NOT UNDER
   NWS QUALITY CONTROL.

LAZ038-040-048-061>063-065>067-069-260800-
SOUTHEAST LOUISIANA

CITY           SKY/WX    TMP DP  RH WIND       PRES   REMARKS
N.O. AUDUBON   NOT AVBL
N.O. INTL ARPT MOCLDY    66  62  87 SE8       29.93F
N.O. LAKEFRONT   N/A     69  63  81 SE8       29.93F
SLIDELL          N/A     61  59  93 CALM      29.93F
BATON ROUGE      N/A     65  60  84 SE5       29.92F
BOOTHVILLE       N/A     64  62  93 SE5       29.95F
BELLE CHASSE     N/A     68  63  84 SE7       29.93F
BOGALUSA*        N/A     66  62  85 S7        29.96F
GALLIANO*      PTSUNNY   72  66  80 SE3       29.94F
NEW ROADS*       N/A     60  57  89 CALM      29.92F
GONZALES*        N/A     66  64  91 CALM      29.92F
HAMMOND*         N/A     64  61  88 SE5       29.95S
HOUMA*           N/A     62  61  99 SE5       29.92F FOG
PORT FOURCHON* MOSUNNY   72  68  88 SE10      29.97F

$$

MSZ070-080>082-260800-
SOUTHERN MISSISSIPPI

CITY           SKY/WX    TMP DP  RH WIND       PRES   REMARKS
MCCOMB           N/A     62  58  86 CALM      29.95S
GULFPORT         N/A     68  65  90 S6        29.95F
BILOXI           N/A     69  66  90 S8        29.95F
PASCAGOULA       N/A     63  61  93 S5        29.96F

$$

COASTAL OBSERVATIONS
LAKE AND NEARSHORE STATIONS

STATION/POSITION TIME  TEMP    WIND        PRES    WAVE
                       AIR SEA DIR/SP/G            HT/PER
                 (UTC) (F)     (DEG/KT/KT) (MB)    (FT/S)
PASCAGOULA       0600   70     160/  7/ 12 1014.6
WAVELAND YACHT   0600   70 71  180/  8/  9 1014.4
GRAND ISLE       0600   71 71  140/  7/ 11 1014.0
SOUTHWEST PASS   0600   67 51  140/ 12/ 14 1014.9
NEW CANAL        0600   67     140/  2/  4 1014.5
SHELL BEACH      0600   69 73  140/  8/ 10 1014.4

OFFSHORE STATIONS

STATION/POSITION TIME  TEMP    WIND        PRES    WAVE
                       AIR SEA DIR/SP/G            HT/PER
                 (UTC) (F)     (DEG/KT/KT) (MB)    (FT/S)
64 S DAUPHIN ISL 0650   73 74  140/ 10/ 12 1014.6    2/ 5

$$




USA.gov is the U.S. government's official web portal to all federal, state and local government web resources and services.